Location: Arapaho Elementary School
(32.9607°N, 96.7625°W)
Time: 21:41:58
(UTC+00:00)

Cosmos 1500 Rocket - Pass Details

Date: 12 July 2022
Orbit: 602 x 631 km, 82.5° (Epoch: 13 August)

Event Time Altitude Azimuth Distance (km) Brightness Sun altitude
Exits shadow 07:10:43 10° 67° (ENE) 1,998 6.5 -34.3°
Drops below altitude 10° 07:10:52 10° 65° (ENE) 2,017 6.5 -34.3°
Sets 07:14:32 0° 33° (NNE) 2,927 7.9 -34.2°
